CST,Max TemperatureF,Mean TemperatureF,Min TemperatureF,Max Dew PointF,MeanDew PointF,Min DewpointF,Max Humidity, Mean Humidity, Min Humidity, Max Sea Level PressureIn, Mean Sea Level PressureIn, Min Sea Level PressureIn, Max VisibilityMiles, Mean VisibilityMiles, Min VisibilityMiles, Max Wind SpeedMPH, Mean Wind SpeedMPH, Max Gust SpeedMPH,PrecipitationIn, CloudCover, Events, WindDirDegrees
2013-11-1,71,56,41,48,42,36,100,68,29,30.05,29.89,29.81,10,10,5,16,3,24,0.00,0,,286
2013-11-2,60,48,37,43,36,32,93,64,34,30.26,30.18,30.05,10,10,10,16,4,22,0.00,0,,316
2013-11-3,64,50,35,41,37,34,100,68,32,30.25,30.16,30.03,10,9,3,13,4,20,0.00,0,,112
2013-11-4,59,55,51,54,47,41,100,79,62,30.17,30.11,30.05,10,10,7,12,7,,0.00,5,Rain,106
2013-11-5,64,58,53,63,58,54,100,98,83,30.15,30.06,29.96,10,7,3,13,8,17,0.00,8,Rain,99
2013-11-6,64,48,33,63,43,34,100,84,58,30.38,30.20,29.92,10,10,4,17,9,23,0.00,5,Rain,323
2013-11-7,62,47,32,41,37,32,100,81,34,30.48,30.41,30.37,10,8,0,9,1,,0.00,1,Fog,258
2013-11-8,68,52,35,43,38,34,100,66,28,30.37,30.26,30.14,10,10,10,12,4,20,0.00,0,,127
2013-11-9,68,57,46,46,43,39,87,63,35,30.28,30.19,30.13,10,10,10,10,3,,0.00,4,,143
2013-11-10,69,58,46,50,45,41,100,65,35,30.37,30.31,30.28,10,9,2,9,2,,0.00,3,,87
2013-11-11,69,56,44,54,47,41,93,68,46,30.33,30.25,30.19,10,10,2,14,3,22,0.00,4,,66
2013-11-12,53,40,28,45,24,14,81,56,29,30.73,30.64,30.35,10,10,10,17,9,25,0.00,2,,360
2013-11-13,50,36,23,27,22,18,100,63,30,30.71,30.58,30.37,10,10,7,9,2,,0.00,0,,105
2013-11-14,59,44,28,37,26,21,86,57,25,30.37,30.21,30.07,10,10,10,12,4,,0.00,1,Rain,115
2013-11-15,60,52,44,50,43,36,94,72,55,30.07,29.97,29.89,10,10,5,12,6,20,0.00,6,Rain,103
2013-11-16,71,61,51,64,57,50,100,79,60,29.89,29.76,29.66,10,9,5,18,9,28,0.00,5,Rain,151
2013-11-17,78,63,48,64,46,25,78,50,17,30.13,29.80,29.62,10,10,7,23,9,31,0.00,2,,267
2013-11-18,69,51,33,37,33,25,93,55,18,30.27,30.21,30.13,10,9,3,8,1,,0.00,0,,73
2013-11-19,60,53,46,32,29,25,57,41,25,30.25,30.18,30.07,10,10,7,20,8,25,0.00,3,,98
2013-11-20,66,54,42,43,32,27,61,44,23,30.09,30.01,29.91,10,10,10,15,10,22,0.00,3,,115
2013-11-21,60,52,44,55,49,34,100,86,39,30.26,30.07,30.01,10,8,2,18,7,23,0.00,8,Rain-Thunderstorm,70
2013-11-22,42,38,35,41,34,32,100,89,81,30.51,30.44,30.27,10,8,2,17,10,23,0.01,7,Rain-Snow-Thunderstorm,348
2013-11-23,44,38,32,32,25,14,87,64,29,30.64,30.58,30.51,10,10,7,12,5,17,0.00,3,Rain-Snow,14
2013-11-24,32,30,28,19,17,12,64,56,47,30.68,30.56,30.37,10,10,7,9,4,,0.00,2,Snow,86
2013-11-25,35,34,32,32,28,18,100,81,55,30.37,30.28,30.21,10,9,2,12,6,17,0.00,7,Rain,101
2013-11-26,50,42,33,32,28,19,87,66,40,30.34,30.21,30.13,10,10,10,22,8,30,0.00,3,,342
2013-11-27,41,32,23,21,15,10,93,54,29,30.48,30.39,30.34,10,10,10,15,6,22,0.00,0,,341
2013-11-28,53,37,21,30,23,18,100,66,33,30.47,30.39,30.35,10,10,10,8,3,,0.00,0,,85
2013-11-29,55,39,23,30,25,21,100,66,28,30.54,30.44,30.35,10,10,10,8,2,,0.00,0,,130
2013-11-30,60,46,33,45,37,28,100,72,48,30.36,30.24,30.15,10,10,7,15,6,23,0.00,1,,103